Change the Weather History Date:

Friday, May 24, 2013

  Actual Average (KRDU) Record (KRDU)
Temperature  
Mean Temperature 64 °F 70 °F  
Max Temperature 73 °F 82 °F 95 °F (1944)
Min Temperature 55 °F 59 °F 42 °F (1931)
Degree Days  
Heating Degree Days 0 1  
Month to date heating degree days 48  
Since 1 July heating degree days 3237  
Cooling Degree Days 0 6  
Month to date cooling degree days 99  
Year to date cooling degree days 160  
Growing Degree Days 14 (Base 50)    
Moisture  
Dew Point 49 °F    
Average Humidity 60    
Maximum Humidity 96    
Minimum Humidity 28    
Precipitation  
Precipitation 0.01 in 0.11 in 1.62 in (1939)
Month to date precipitation 2.43  
Year to date precipitation 16.19  
Sea Level Pressure  
Sea Level Pressure 29.98 in    
Wind  
Wind Speed 6 mph (NW)    
Max Wind Speed 23 mph    
Max Gust Speed 31 mph    
Visibility 10 miles    
Events Rain    
T = Trace of Precipitation, MM = Missing Value Source: NWS Daily Summary

Daily Weather History Graph

Daily Weather History Graph

Search for Another Location

Airport or City:

Trip Planner

Search our weather history database for the weather conditions in past years. The results will help you decide how hot, cold, wet, or windy it might be!

Date:

Astronomy

May. 24, 2013 Rise Set
Actual Time 6:05 AM EDT 8:21 PM EDT
Civil Twilight 5:36 AM EDT 8:50 PM EDT
Nautical Twilight 5:00 AM EDT 9:26 PM EDT
Astronomical Twilight 4:22 AM EDT 10:04 PM EDT
Moon 8:02 PM EDT (5/24) 5:34 AM EDT (5/24)
Length of Visible Light 15h 14m
Length of Day
14h 15m
Full, 100% of the Moon is Illuminated
May 24
Full
May 25
Full
May 31
Last Quarter
Jun 8
New
Jun 16
First Quarter

Hourly Weather History & Observations

Time (EDT) Temp. Dew Point Humidity Pressure Visibility Wind Dir Wind Speed Gust Speed Precip Events Conditions
12:15 AM 67.3 °F 62.8 °F 85% 29.88 in 10.0 mi West 4.6 mph - N/A Rain Light Rain
12:35 AM 66.6 °F 63.0 °F 88% 29.87 in 10.0 mi Calm Calm - 0.01 in Rain Light Rain
12:55 AM 65.5 °F 63.1 °F 92% 29.88 in 10.0 mi SW 4.6 mph - 0.01 in   Overcast
1:15 AM 64.8 °F 62.6 °F 93% 29.87 in 10.0 mi SW 3.5 mph - N/A   Scattered Clouds
1:35 AM 64.4 °F 62.2 °F 93% 29.86 in 10.0 mi WSW 3.5 mph - N/A   Scattered Clouds
1:55 AM 63.5 °F 61.3 °F 93% 29.84 in 10.0 mi Calm Calm - N/A   Scattered Clouds
2:15 AM 63.7 °F 61.9 °F 94% 29.85 in 10.0 mi WSW 5.8 mph - N/A Rain Light Rain
2:35 AM 63.5 °F 61.5 °F 93% 29.83 in 10.0 mi Calm Calm - N/A   Scattered Clouds
2:55 AM 63.1 °F 61.3 °F 94% 29.84 in 10.0 mi Calm Calm - N/A   Scattered Clouds
3:15 AM 63.5 °F 61.7 °F 94% 29.83 in 10.0 mi Calm Calm - N/A   Scattered Clouds
3:35 AM 61.7 °F 59.9 °F 94% 29.83 in 10.0 mi Calm Calm - N/A   Scattered Clouds
3:55 AM 62.6 °F 61.2 °F 95% 29.83 in 10.0 mi Calm Calm - N/A   Scattered Clouds
4:15 AM 63.5 °F 61.7 °F 94% 29.83 in 10.0 mi West 3.5 mph - N/A   Mostly Cloudy
4:35 AM 63.9 °F 61.2 °F 91% 29.83 in 10.0 mi Calm Calm - N/A   Overcast
4:55 AM 64.0 °F 61.0 °F 90% 29.84 in 10.0 mi West 3.5 mph - N/A   Overcast
5:15 AM 62.6 °F 59.9 °F 91% 29.84 in 10.0 mi Calm Calm - N/A   Mostly Cloudy
5:35 AM 61.3 °F 59.7 °F 94% 29.84 in 10.0 mi Calm Calm - N/A   Mostly Cloudy
5:55 AM 62.1 °F 60.8 °F 96% 29.85 in 10.0 mi Calm Calm - N/A   Overcast
6:15 AM 63.5 °F 61.2 °F 92% 29.86 in 10.0 mi West 3.5 mph - N/A   Overcast
6:35 AM 63.5 °F 60.4 °F 90% 29.87 in 10.0 mi West 3.5 mph - N/A   Mostly Cloudy
6:55 AM 63.7 °F 60.3 °F 89% 29.88 in 10.0 mi West 3.5 mph - N/A   Mostly Cloudy
7:15 AM 64.2 °F 60.1 °F 86% 29.88 in 10.0 mi West 3.5 mph - N/A   Overcast
7:35 AM 64.6 °F 60.1 °F 85% 29.88 in 10.0 mi Calm Calm - N/A   Scattered Clouds
7:55 AM 66.0 °F 60.3 °F 82% 29.89 in 10.0 mi West 4.6 mph - N/A   Scattered Clouds
8:15 AM 66.6 °F 59.9 °F 79% 29.90 in 10.0 mi West 4.6 mph - N/A   Overcast
8:35 AM 66.2 °F 59.4 °F 79% 29.90 in 10.0 mi West 4.6 mph - N/A   Overcast
8:55 AM 66.2 °F 59.4 °F 79% 29.91 in 10.0 mi WNW 3.5 mph - N/A   Overcast
9:15 AM 67.1 °F 59.4 °F 76% 29.92 in 10.0 mi WNW 5.8 mph - N/A   Mostly Cloudy
9:35 AM 69.4 °F 59.0 °F 69% 29.92 in 10.0 mi WNW 5.8 mph - N/A   Overcast
9:55 AM 70.2 °F 57.6 °F 64% 29.93 in 10.0 mi NW 8.1 mph - N/A   Mostly Cloudy
10:15 AM 72.5 °F 57.0 °F 58% 29.93 in 10.0 mi NW 10.4 mph 18.4 mph N/A   Scattered Clouds
10:35 AM 73.6 °F 57.0 °F 56% 29.94 in 10.0 mi NW 9.2 mph 19.6 mph N/A   Scattered Clouds
10:55 AM 71.8 °F 57.2 °F 60% 29.95 in 10.0 mi NW 6.9 mph - N/A   Mostly Cloudy
11:15 AM 71.8 °F 56.3 °F 58% 29.96 in 10.0 mi NW 13.8 mph 19.6 mph N/A   Overcast
11:35 AM 71.2 °F 55.6 °F 58% 29.98 in 10.0 mi NW 18.4 mph 23.0 mph N/A   Overcast
11:55 AM 70.2 °F 55.0 °F 59% 29.99 in 10.0 mi NNW 16.1 mph 24.2 mph N/A   Overcast
12:15 PM 70.5 °F 53.8 °F 55% 29.99 in 10.0 mi NW 12.7 mph 18.4 mph N/A   Overcast
12:35 PM 70.7 °F 52.7 °F 53% 30.00 in 10.0 mi NNW 17.3 mph 26.5 mph N/A   Overcast
12:55 PM 71.6 °F 45.9 °F 40% 30.01 in 10.0 mi NW 18.4 mph 25.3 mph N/A   Scattered Clouds
1:15 PM 71.4 °F 43.7 °F 37% 30.01 in 10.0 mi NNW 20.7 mph 28.8 mph N/A   Unknown
1:35 PM 71.4 °F 43.7 °F 37% 30.02 in 10.0 mi NW 17.3 mph 26.5 mph N/A   Clear
1:55 PM 71.6 °F 42.6 °F 35% 30.01 in 10.0 mi NNW 18.4 mph 26.5 mph N/A   Clear
2:15 PM 70.7 °F 40.3 °F 33% 30.02 in 10.0 mi NW 20.7 mph 29.9 mph N/A   Clear
2:35 PM 70.9 °F 40.6 °F 33% 30.03 in 10.0 mi NW 18.4 mph 27.6 mph N/A   Clear
2:55 PM 70.7 °F 38.1 °F 30% 30.04 in 10.0 mi NW 21.9 mph 31.1 mph N/A   Clear
3:15 PM 70.7 °F 38.1 °F 30% 30.04 in 10.0 mi WNW 19.6 mph 29.9 mph N/A   Clear
3:35 PM 70.3 °F 37.4 °F 30% 30.05 in 10.0 mi NW 18.4 mph 26.5 mph N/A   Clear
3:55 PM 71.2 °F 37.8 °F 29% 30.04 in 10.0 mi NW 17.3 mph 21.9 mph N/A   Clear
4:15 PM 70.9 °F 38.5 °F 31% 30.05 in 10.0 mi WNW 19.6 mph 25.3 mph N/A   Clear
4:35 PM 70.7 °F 36.7 °F 29% 30.05 in 10.0 mi NW 23.0 mph 29.9 mph N/A   Clear
4:55 PM 69.8 °F 35.8 °F 29% 30.06 in 10.0 mi NW 21.9 mph 29.9 mph N/A   Clear
5:15 PM 69.8 °F 36.3 °F 29% 30.06 in 10.0 mi NNW 13.8 mph 25.3 mph N/A   Clear
5:35 PM 70.0 °F 35.2 °F 28% 30.06 in 10.0 mi NW 11.5 mph 23.0 mph N/A   Clear
5:55 PM 69.1 °F 35.1 °F 29% 30.07 in 10.0 mi NW 18.4 mph 24.2 mph N/A   Clear
6:15 PM 68.9 °F 34.7 °F 28% 30.07 in 10.0 mi NNW 17.3 mph 24.2 mph N/A   Clear
6:35 PM 68.4 °F 34.5 °F 29% 30.08 in 10.0 mi NW 11.5 mph 23.0 mph N/A   Clear
6:55 PM 68.0 °F 35.4 °F 30% 30.08 in 10.0 mi NNW 15.0 mph 19.6 mph N/A   Clear
7:15 PM 67.1 °F 35.8 °F 31% 30.09 in 10.0 mi NNW 10.4 mph - N/A   Clear
7:35 PM 66.2 °F 34.9 °F 31% 30.10 in 10.0 mi NW 9.2 mph 19.6 mph N/A   Clear
7:55 PM 64.6 °F 36.1 °F 35% 30.10 in 10.0 mi NNW 6.9 mph - N/A   Clear
8:15 PM 62.6 °F 37.2 °F 39% 30.11 in 10.0 mi NNW 4.6 mph - N/A   Clear
8:35 PM 61.7 °F 38.7 °F 43% 30.12 in 10.0 mi Calm Calm - N/A   Clear
8:55 PM 59.9 °F 40.1 °F 48% 30.13 in 10.0 mi NW 4.6 mph - N/A   Clear
9:15 PM 59.0 °F 39.6 °F 49% 30.14 in 10.0 mi NW 4.6 mph - N/A   Clear
9:35 PM 58.1 °F 39.4 °F 50% 30.14 in 10.0 mi NNW 3.5 mph - N/A   Clear
9:55 PM 56.7 °F 39.6 °F 53% 30.16 in 10.0 mi NNW 4.6 mph - N/A   Clear
10:15 PM 56.3 °F 40.1 °F 55% 30.17 in 10.0 mi NNW 4.6 mph - N/A   Clear
10:35 PM 56.3 °F 38.3 °F 51% 30.18 in 10.0 mi NW 6.9 mph - N/A   Clear
10:55 PM 57.2 °F 36.5 °F 46% 30.18 in 10.0 mi NNW 9.2 mph - N/A   Clear
11:15 PM 57.0 °F 35.6 °F 45% 30.19 in 10.0 mi NNW 8.1 mph - N/A   Clear
11:35 PM 56.8 °F 35.2 °F 44% 30.19 in 10.0 mi NNW 9.2 mph - N/A   Clear
11:55 PM 55.8 °F 35.8 °F 47% 30.19 in 10.0 mi NNW 5.8 mph - N/A   Clear